Drummond Island, MI

5:26 PM EDT on October 23, 2017 (GMT -0400)
Drummond Island

Weather History for KDRM - March, 2013

Change the Weather History Date:

Wednesday, March 20, 2013

  Actual Average (KCIU) Record (KCIU)
Temperature  
Mean Temperature 22 °F -  
Max Temperature 28 °F 38 °F 80 °F (2012)
Min Temperature 17 °F 15 °F -3 °F (1992)
Degree Days  
Heating Degree Days 42    
Moisture  
Dew Point 19 °F    
Average Humidity 83    
Maximum Humidity 94    
Minimum Humidity 65    
Precipitation  
Precipitation 0.00 in - - ()
Sea Level Pressure  
Sea Level Pressure 29.73 in    
Wind  
Wind Speed 7 mph (WSW)    
Max Wind Speed 15 mph    
Max Gust Speed 26 mph    
Visibility 8 miles    
Events Snow    
Averages and records for this station are not official NWS values.
T = Trace of Precipitation, MM = Missing Value Source: NWS Daily Summary

Daily Weather History Graph

Daily Weather History Graph

Search for Another Location

Airport or City:

Trip Planner

Search our weather history database for the weather conditions in past years. The results will help you decide how hot, cold, wet, or windy it might be!

Date:

Astronomy

Mar. 20, 2013 Rise Set
Actual Time 7:37 AM EDT 7:47 PM EDT
Civil Twilight 7:07 AM EDT 8:17 PM EDT
Nautical Twilight 6:32 AM EDT 8:52 PM EDT
Astronomical Twilight 5:56 AM EDT 9:28 PM EDT
Moon 1:04 PM EDT (3/20) 3:34 AM EDT (3/20)
Length of Visible Light 13h 10m
Length of Day
12h 10m
First Quarter, 59% of the Moon is Illuminated
Mar 20
First Quarter
Mar 27
Full
Apr 3
Last Quarter
Apr 10
New
Apr 18
First Quarter

Hourly Weather History & Observations

Time (EDT) Temp. Windchill Dew Point Humidity Pressure Visibility Wind Dir Wind Speed Gust Speed Precip Events Conditions
12:17 AM 21.9 °F 13.4 °F 18.0 °F 85% 29.71 in 10.0 mi WSW 6.9 mph - N/A   Clear
12:36 AM 22.1 °F 14.7 °F 18.0 °F 84% 29.71 in 10.0 mi WSW 5.8 mph - N/A   Clear
12:57 AM 22.1 °F 13.7 °F 18.1 °F 85% 29.71 in 10.0 mi WSW 6.9 mph - N/A   Clear
1:17 AM 21.7 °F 12.3 °F 17.8 °F 85% 29.72 in 10.0 mi WSW 8.1 mph - N/A   Clear
1:36 AM 21.6 °F 13.0 °F 17.6 °F 85% 29.72 in 10.0 mi WSW 6.9 mph - N/A   Scattered Clouds
1:57 AM 21.2 °F 12.6 °F 17.4 °F 85% 29.72 in 10.0 mi West 6.9 mph - N/A   Scattered Clouds
2:16 AM 21.0 °F 11.4 °F 17.2 °F 85% 29.72 in 10.0 mi West 8.1 mph - N/A   Scattered Clouds
2:37 AM 20.7 °F 13.0 °F 16.9 °F 85% 29.72 in 10.0 mi West 5.8 mph - N/A   Clear
2:56 AM 20.3 °F 11.5 °F 16.7 °F 86% 29.72 in 10.0 mi WSW 6.9 mph - N/A   Clear
3:17 AM 20.1 °F 11.3 °F 16.3 °F 85% 29.72 in 10.0 mi West 6.9 mph - N/A   Clear
3:37 AM 20.1 °F 11.3 °F 16.3 °F 85% 29.72 in 10.0 mi West 6.9 mph - N/A   Clear
3:56 AM 19.8 °F 10.8 °F 15.8 °F 85% 29.73 in 10.0 mi West 6.9 mph - N/A   Clear
4:17 AM 19.4 °F 10.4 °F 15.8 °F 86% 29.73 in 10.0 mi West 6.9 mph - N/A   Clear
4:37 AM 19.4 °F 10.4 °F 15.8 °F 86% 29.73 in 10.0 mi West 6.9 mph - N/A   Clear
4:56 AM 19.4 °F 11.5 °F 15.8 °F 86% 29.73 in 10.0 mi West 5.8 mph - N/A   Clear
5:17 AM 19.0 °F 11.1 °F 15.4 °F 86% 29.73 in 10.0 mi WSW 5.8 mph - N/A   Clear
5:36 AM 18.7 °F 10.6 °F 15.1 °F 86% 29.73 in 10.0 mi WSW 5.8 mph - N/A   Clear
5:56 AM 18.5 °F 9.3 °F 14.9 °F 86% 29.73 in 10.0 mi West 6.9 mph - N/A   Clear
6:16 AM 18.5 °F 10.4 °F 14.7 °F 85% 29.73 in 10.0 mi West 5.8 mph - N/A   Clear
6:36 AM 18.1 °F 8.9 °F 14.4 °F 85% 29.73 in 10.0 mi WSW 6.9 mph - N/A   Clear
6:57 AM 18.1 °F 8.9 °F 14.5 °F 86% 29.73 in 10.0 mi WSW 6.9 mph - N/A   Clear
7:16 AM 18.1 °F 10.0 °F 14.7 °F 86% 29.73 in 10.0 mi WSW 5.8 mph - N/A   Clear
7:36 AM 17.6 °F 8.2 °F 14.4 °F 87% 29.73 in 10.0 mi WSW 6.9 mph - N/A   Clear
7:57 AM 17.4 °F 10.4 °F 14.4 °F 88% 29.73 in 10.0 mi WSW 4.6 mph - N/A   Clear
8:16 AM 17.4 °F 9.1 °F 14.2 °F 87% 29.73 in 10.0 mi West 5.8 mph - N/A   Clear
8:37 AM 18.5 °F 9.3 °F 14.4 °F 84% 29.73 in 10.0 mi WSW 6.9 mph - N/A   Clear
8:57 AM 19.4 °F 9.5 °F 14.7 °F 82% 29.73 in 10.0 mi WSW 8.1 mph - N/A   Clear
9:16 AM 20.3 °F 10.6 °F 14.9 °F 80% 29.72 in 10.0 mi WSW 8.1 mph - N/A   Clear
9:37 AM 21.2 °F 12.6 °F 14.9 °F 77% 29.72 in 10.0 mi WSW 6.9 mph - N/A   Clear
9:56 AM 22.3 °F 13.0 °F 14.9 °F 73% 29.72 in 10.0 mi West 8.1 mph 17.3 mph N/A   Clear
10:16 AM 23.0 °F 17.0 °F 15.3 °F 72% 29.73 in 10.0 mi West 4.6 mph - N/A   Clear
10:37 AM 24.4 °F 15.6 °F 15.6 °F 69% 29.73 in 10.0 mi WSW 8.1 mph - N/A   Clear
10:56 AM 25.5 °F 17.8 °F 16.3 °F 68% 29.73 in 10.0 mi SW 6.9 mph - N/A   Mostly Cloudy
11:16 AM 26.6 °F 19.1 °F 16.9 °F 67% 29.72 in 10.0 mi WSW 6.9 mph - N/A   Overcast
11:56 AM 26.8 °F 17.7 °F 16.7 °F 66% 29.72 in 10.0 mi West 9.2 mph 16.1 mph N/A   Mostly Cloudy
12:16 PM 27.3 °F 18.4 °F 17.1 °F 65% 29.72 in 10.0 mi West 9.2 mph - N/A   Mostly Cloudy
12:37 PM 27.0 °F 17.3 °F 17.1 °F 66% 29.72 in 10.0 mi SW 10.4 mph - N/A   Mostly Cloudy
12:56 PM 27.7 °F 20.4 °F 18.1 °F 67% 29.72 in 10.0 mi WSW 6.9 mph - N/A   Overcast
1:13 PM 27.7 °F 16.6 °F 18.3 °F 68% 29.72 in 10.0 mi SW 13.8 mph 19.6 mph N/A   Overcast
1:37 PM 28.4 °F 18.5 °F 19.2 °F 69% 29.72 in 10.0 mi WSW 11.5 mph 18.4 mph N/A Snow Light Snow
1:56 PM 27.3 °F 16.1 °F 19.2 °F 72% 29.72 in 10.0 mi WSW 13.8 mph 18.4 mph N/A   Overcast
2:17 PM 27.5 °F 15.9 °F 19.2 °F 71% 29.72 in 7.0 mi WSW 15.0 mph 26.5 mph N/A   Overcast
2:37 PM 27.7 °F 16.1 °F 19.4 °F 71% 29.72 in 7.0 mi WSW 15.0 mph 23.0 mph N/A   Overcast
2:56 PM 26.8 °F 17.1 °F 20.5 °F 77% 29.72 in 5.0 mi WSW 10.4 mph 18.4 mph N/A   Haze
3:17 PM 26.6 °F 14.7 °F 20.3 °F 77% 29.72 in 3.0 mi WSW 15.0 mph 24.2 mph N/A Snow Light Snow
3:36 PM 26.4 °F 16.6 °F 20.3 °F 78% 29.72 in 5.0 mi WSW 10.4 mph 26.5 mph N/A   Haze
3:56 PM 26.6 °F 17.5 °F 20.5 °F 78% 29.72 in 5.0 mi SW 9.2 mph 21.9 mph N/A   Haze
4:17 PM 26.6 °F 17.5 °F 21.2 °F 80% 29.72 in 5.0 mi WSW 9.2 mph 21.9 mph N/A   Haze
4:36 PM 26.6 °F 16.8 °F 21.7 °F 82% 29.71 in 2.5 mi WSW 10.4 mph 21.9 mph N/A Snow Light Snow
4:56 PM 27.5 °F 15.9 °F 22.5 °F 81% 29.72 in 3.0 mi WSW 15.0 mph 23.0 mph N/A Snow Light Snow
5:17 PM 27.0 °F 15.2 °F 22.5 °F 83% 29.72 in 7.0 mi WSW 15.0 mph 24.2 mph N/A   Overcast
5:36 PM 26.6 °F 15.7 °F 22.6 °F 85% 29.72 in 3.0 mi WSW 12.7 mph 20.7 mph N/A Snow Light Snow
5:57 PM 27.1 °F 17.5 °F 23.5 °F 86% 29.72 in 3.0 mi WSW 10.4 mph 16.1 mph N/A Snow Light Snow
6:17 PM 27.0 °F 17.3 °F 23.7 °F 88% 29.73 in 2.0 mi WSW 10.4 mph 17.3 mph N/A Snow Light Snow
6:36 PM 26.4 °F 18.9 °F 23.7 °F 90% 29.73 in 1.2 mi WSW 6.9 mph 16.1 mph N/A Snow Light Snow
6:57 PM 26.4 °F 19.8 °F 23.9 °F 90% 29.73 in 3.0 mi WSW 5.8 mph - N/A Snow Light Snow
7:16 PM 26.4 °F 18.9 °F 24.3 °F 92% 29.73 in 5.0 mi WSW 6.9 mph - N/A Snow Light Snow
7:36 PM 26.4 °F 19.8 °F 24.4 °F 92% 29.74 in 4.0 mi WSW 5.8 mph - N/A Snow Light Snow
7:57 PM 26.6 °F 21.2 °F 24.6 °F 92% 29.75 in 10.0 mi West 4.6 mph - N/A   Overcast
8:16 PM 26.6 °F 22.6 °F 24.8 °F 93% 29.75 in 2.5 mi West 3.5 mph - N/A Snow Light Snow
8:36 PM 26.4 °F 22.4 °F 24.8 °F 94% 29.74 in 3.0 mi West 3.5 mph - N/A Snow Light Snow
8:57 PM 26.4 °F 22.4 °F 24.6 °F 93% 29.75 in 4.0 mi West 3.5 mph - N/A Snow Light Snow
9:16 PM 26.2 °F 22.1 °F 23.9 °F 91% 29.75 in 5.0 mi West 3.5 mph - N/A Snow Light Snow
9:37 PM 26.2 °F 19.6 °F 24.3 °F 92% 29.74 in 3.0 mi West 5.8 mph - N/A Snow Light Snow
9:57 PM 26.1 °F 21.9 °F 23.9 °F 92% 29.74 in 10.0 mi West 3.5 mph - N/A Snow Light Snow
10:16 PM 26.1 °F 20.5 °F 23.9 °F 92% 29.74 in 4.0 mi West 4.6 mph - N/A Snow Light Snow
10:37 PM 26.1 °F 18.4 °F 24.3 °F 93% 29.74 in 5.0 mi West 6.9 mph - N/A Snow Light Snow
10:57 PM 26.2 °F 19.6 °F 24.4 °F 93% 29.73 in 5.0 mi West 5.8 mph - N/A Snow Light Snow
11:16 PM 25.7 °F 20.1 °F 23.9 °F 93% 29.73 in 10.0 mi WNW 4.6 mph - N/A   Overcast
11:37 PM 25.7 °F 20.1 °F 23.9 °F 93% 29.73 in 10.0 mi WNW 4.6 mph - N/A   Overcast
11:56 PM 25.5 °F 18.7 °F 23.7 °F 93% 29.73 in 10.0 mi WNW 5.8 mph - N/A   Overcast